Showing default

LEMUR 2 NIMBUS2000, 58899

Orbit data source: Space-Track

LEMUR 2 NIMBUS2000, 58899 is an American payload satellite in SSO that was launched on Wed, 31 Jan 2024 UTC via an ELECTRON launch vehicle from the Rocket Lab Launch Complex (RLLC). Payload-class satellites include a variety of spacecraft equipped with specific instruments for various scientific and technological missions. These include communications satellites like Starlink; space stations such as the ISS; scientific satellites like the Hubble; Earth observation satellites from companies like Planet Labs, Umbra, and HawkEye 360; GPS; miniature CubeSats for education and research; and military/defense satellites.

Loading next visibility...
Identifier
58899, 2024-022A
Orbit
SSO
Last TLE update
15 hours ago
Origin
Manufacturer
Spire/Glasgow
Mission
Operational Commercial Early Warn
Bus & Motor
CUBESAT 3U, Unknown motor
Mass
~25 kg wet, ~25 kg dry
Launch date (UTC)
2024-01-31 (1 year ago)
Launch vehicle
ELECTRON
Launch site
Rocket Lab Launch Complex (RLLC)
Object type
Payload
Rocket body
Debris
Shape & HBR
Box + 2 Pan, 1 m
Radar Cross Section
0.146 m², Medium (>0.1 m² and < 1m²)

Expand to show TLE details & history

TLE from 15 hours ago
0 LEMUR 2 NIMBUS2000
1 58899U 24022A   25169.55455628  .00008652  00000-0  32271-3 0  9991
2 58899  97.4485  12.6367 0011146 342.0537  18.0307 15.27605673 76543
Epoch: 2025-06-18T13:18Z
TLE epoch observation values (Epoch: 2025-06-18T13:18:33.662Z)
Latitude
-0.00003°
Longitude
-94.03848°
Altitude
478.799 km
Speed
7.63 km/s
True Right ascension
00h 50m 32s
True Declination
0° 00' 00"
Sunlit
Object was in daylight at epoch
Visualization orbit readout
Latitude
18.11312°
Longitude
89.01718°
Altitude
493.118 km
Speed
7.616 km/s
Apparent Right ascension
09h 56m 03s
Apparent Declination
-30° 35' 02"
Sunlit
Object is in daylight
Visualization observer readout
Local Sidereal Time
14:59:56
Azimuth
237.89° WSW
Elevation
-9.581°
Doppler factor
1
Orbital elements
Apogee altitude
487.574 km
Perigee altitude
472.286 km
Semi-major axis
6,858.067 km
Eccentricity
0.00111
Inclination
97.4485°
RAAN
12.6367°
Arg. of periapsis
342.0537°
True anomaly
Unknown
Mean anomaly
18.0307°
Eccentric anomaly
Unknown
Mean motion
3.82156 °/min
Orbital period
94.2 mins
BSTAR
0.00032271
Loading maneuver chart data...
Loading SW <> Apogee altitude chart data...
Loading historical data...
Loading historical data...
Loading historical data...
Loading historical data...
Loading historical data...
Loading historical data...
Loading historical data...

LEMUR 2 NIMBUS2000 Visibility forecast

Observer location: undefined°, undefined°

Span
Click to sort rows by Start time (UTC) header in descending order
Start Az.
Max El. time (UTC)
Max El. Az.
Max El.
End time (UTC)
End Az.
5 mins2025-06-19 13:01:50.516Z129.607° SE2025-06-19 13:04:50.516Z56.669° ENE26.092°2025-06-19 13:06:50.516Z15.692° NNE
5 mins2025-06-20 02:02:50.516Z38.608° NE2025-06-20 02:04:50.516Z100.105° ESE33.635°2025-06-20 02:07:50.516Z168.784° S
|